Location: Bruderhein
(53.8035°N, 112.9265°W)
Time: 14:37:56
(UTC+00:00)

deb Delta 139 - Pass Details

Date: 03 December 2023
Orbit: 731 x 794 km, 98.6° (Epoch: 01 March)

Event Time Altitude Azimuth Distance (km) Brightness Sun altitude
Rises 03:15:56 0° 223° (SW) 3,266 ? -34.4°
Reaches altitude 10° 03:19:55 10° 254° (WSW) 2,331 ? -35.0°
Maximum altitude 03:21:51 12° 277° (W) 2,189 ? -35.3°
Drops below altitude 10° 03:23:46 10° 299° (WNW) 2,322 ? -35.6°
Sets 03:27:44 0° 330° (NNW) 3,239 ? -36.1°
